Time,TemperatureF,DewpointF,PressureIn,WindDirection,WindDirectionDegrees,WindSpeedMPH,WindSpeedGustMPH,Humidity,HourlyPrecipIn,Conditions,Clouds,dailyrainin,SoftwareType,DateUTC
2013-03-28 00:00:00,52.8,46.5,30.20,NNW,329,4.6,4.6,79,0.00,CLR,,0.00,WeatherDisplay:10.37,2013-03-28 04:00:00,
2013-03-28 00:01:00,52.8,46.5,30.20,NW,324,3.5,3.5,79,0.00,CLR,,0.00,WeatherDisplay:10.37,2013-03-28 04:01:00,
2013-03-28 00:06:00,52.7,46.7,30.20,NNW,329,3.5,3.5,80,0.00,CLR,,0.00,WeatherDisplay:10.37,2013-03-28 04:06:00,
2013-03-28 00:11:00,52.6,46.6,30.20,NNW,339,2.3,2.3,80,0.00,CLR,,0.00,WeatherDisplay:10.37,2013-03-28 04:11:00,
2013-03-28 00:16:00,52.6,46.6,30.20,NNW,334,2.3,2.3,80,0.00,CLR,,0.00,WeatherDisplay:10.37,2013-03-28 04:16:00,
2013-03-28 00:21:00,52.4,46.4,30.20,NNW,338,2.3,2.3,80,0.00,CLR,,0.00,WeatherDisplay:10.37,2013-03-28 04:21:00,
2013-03-28 00:26:00,52.4,46.7,30.20,NW,318,3.5,3.5,81,0.00,CLR,,0.00,WeatherDisplay:10.37,2013-03-28 04:26:00,
2013-03-28 00:31:00,52.2,46.5,30.20,NNW,338,3.5,3.5,81,0.00,CLR,,0.00,WeatherDisplay:10.37,2013-03-28 04:31:00,
2013-03-28 00:36:00,52.1,46.4,30.20,NNW,329,2.3,2.3,81,0.00,CLR,,0.00,WeatherDisplay:10.37,2013-03-28 04:36:00,
2013-03-28 00:41:00,52.0,46.3,30.20,NNW,329,2.3,2.3,81,0.00,CLR,,0.00,WeatherDisplay:10.37,2013-03-28 04:41:00,
2013-03-28 00:46:00,51.9,46.3,30.20,NNW,331,3.5,3.5,81,0.00,CLR,,0.00,WeatherDisplay:10.37,2013-03-28 04:46:00,
2013-03-28 00:51:00,51.9,46.3,30.20,NNW,329,3.5,3.5,81,0.00,CLR,,0.00,WeatherDisplay:10.37,2013-03-28 04:51:00,
2013-03-28 00:56:00,51.9,46.3,30.20,NNW,329,3.5,3.5,81,0.00,CLR,,0.00,WeatherDisplay:10.37,2013-03-28 04:56:00,
2013-03-28 01:01:00,51.8,46.2,30.20,NNW,331,3.5,3.5,81,0.00,CLR,,0.00,WeatherDisplay:10.37,2013-03-28 05:01:00,
2013-03-28 01:06:00,51.8,46.2,30.20,NNW,333,3.5,3.5,81,0.00,CLR,,0.00,WeatherDisplay:10.37,2013-03-28 05:06:00,
2013-03-28 01:11:00,51.8,46.2,30.20,NNW,332,3.5,3.5,81,0.00,CLR,,0.00,WeatherDisplay:10.37,2013-03-28 05:11:00,
2013-03-28 01:16:00,51.7,46.1,30.19,NNW,332,3.5,3.5,81,0.00,CLR,,0.00,WeatherDisplay:10.37,2013-03-28 05:16:00,
2013-03-28 01:21:00,51.7,46.1,30.19,NNW,333,3.5,3.5,81,0.00,CLR,,0.00,WeatherDisplay:10.37,2013-03-28 05:21:00,
2013-03-28 01:26:00,51.7,46.1,30.19,NW,324,3.5,3.5,81,0.00,CLR,,0.00,WeatherDisplay:10.37,2013-03-28 05:26:00,
2013-03-28 01:31:00,51.6,46.9,30.19,NW,324,3.5,3.5,84,0.00,CLR,,0.00,WeatherDisplay:10.37,2013-03-28 05:31:00,
2013-03-28 01:36:00,51.5,46.8,30.19,NW,321,3.5,3.5,84,0.00,CLR,,0.00,WeatherDisplay:10.37,2013-03-28 05:36:00,
2013-03-28 01:41:00,51.5,46.5,30.19,NNW,329,3.5,3.5,83,0.00,CLR,,0.00,WeatherDisplay:10.37,2013-03-28 05:41:00,
2013-03-28 01:46:00,51.4,46.7,30.19,NNW,335,3.5,3.5,84,0.00,CLR,,0.00,WeatherDisplay:10.37,2013-03-28 05:46:00,
2013-03-28 01:51:00,51.3,46.3,30.19,NNW,329,3.5,3.5,83,0.00,CLR,,0.00,WeatherDisplay:10.37,2013-03-28 05:51:00,
2013-03-28 01:56:00,51.3,46.3,30.19,NNW,331,3.5,3.5,83,0.00,CLR,,0.00,WeatherDisplay:10.37,2013-03-28 05:56:00,
2013-03-28 02:01:00,51.2,46.2,30.19,NW,325,3.5,3.5,83,0.00,CLR,,0.00,WeatherDisplay:10.37,2013-03-28 06:01:00,
2013-03-28 02:06:00,51.2,45.9,30.18,NW,324,3.5,3.5,82,0.00,CLR,,0.00,WeatherDisplay:10.37,2013-03-28 06:06:00,
2013-03-28 02:11:00,51.3,45.7,30.19,NNW,327,3.5,3.5,81,0.00,CLR,,0.00,WeatherDisplay:10.37,2013-03-28 06:11:00,
2013-03-28 02:16:00,51.3,45.7,30.19,NW,317,3.5,3.5,81,0.00,CLR,,0.00,WeatherDisplay:10.37,2013-03-28 06:16:00,
2013-03-28 02:21:00,51.3,46.0,30.19,NW,318,4.6,4.6,82,0.00,CLR,,0.00,WeatherDisplay:10.37,2013-03-28 06:21:00,
2013-03-28 02:26:00,51.3,46.0,30.19,NW,317,3.5,3.5,82,0.00,CLR,,0.00,WeatherDisplay:10.37,2013-03-28 06:26:00,
2013-03-28 02:31:00,51.2,45.9,30.19,NW,317,4.0,4.0,82,0.00,CLR,,0.00,WeatherDisplay:10.37,2013-03-28 06:31:00,
2013-03-28 02:36:00,51.2,45.9,30.19,NNW,331,3.5,3.5,82,0.00,CLR,,0.00,WeatherDisplay:10.37,2013-03-28 06:36:00,
2013-03-28 02:41:00,51.2,45.9,30.19,NW,320,3.5,3.5,82,0.00,CLR,,0.00,WeatherDisplay:10.37,2013-03-28 06:41:00,
2013-03-28 02:46:00,51.2,45.9,30.18,NW,317,3.5,3.5,82,0.00,CLR,,0.00,WeatherDisplay:10.37,2013-03-28 06:46:00,
2013-03-28 02:51:00,51.0,45.4,30.18,NNW,329,5.8,5.8,81,0.00,CLR,,0.00,WeatherDisplay:10.37,2013-03-28 06:51:00,
2013-03-28 02:56:00,51.0,45.0,30.18,NW,325,4.6,4.6,80,0.00,CLR,,0.00,WeatherDisplay:10.37,2013-03-28 06:56:00,
2013-03-28 03:01:00,50.9,44.9,30.18,NNW,336,5.0,5.0,80,0.00,CLR,,0.00,WeatherDisplay:10.37,2013-03-28 07:01:00,
2013-03-28 03:06:00,50.8,45.2,30.18,NNW,328,3.5,3.5,81,0.00,CLR,,0.00,WeatherDisplay:10.37,2013-03-28 07:06:00,
2013-03-28 03:11:00,50.5,44.9,30.18,NW,318,4.6,4.6,81,0.00,CLR,,0.00,WeatherDisplay:10.37,2013-03-28 07:11:00,
2013-03-28 03:16:00,50.4,44.8,30.18,NNW,339,3.5,3.5,81,0.00,CLR,,0.00,WeatherDisplay:10.37,2013-03-28 07:16:00,
2013-03-28 03:21:00,50.3,44.7,30.18,NNW,328,3.5,3.5,81,0.00,CLR,,0.00,WeatherDisplay:10.37,2013-03-28 07:21:00,
2013-03-28 03:26:00,50.3,44.7,30.18,NW,314,3.5,3.5,81,0.00,CLR,,0.00,WeatherDisplay:10.37,2013-03-28 07:26:00,
2013-03-28 03:31:00,50.1,44.8,30.18,WNW,302,4.0,4.0,82,0.00,CLR,,0.00,WeatherDisplay:10.37,2013-03-28 07:31:00,
2013-03-28 03:36:00,50.0,45.0,30.17,NW,321,3.5,3.5,83,0.00,CLR,,0.00,WeatherDisplay:10.37,2013-03-28 07:36:00,
2013-03-28 03:41:00,49.9,44.9,30.17,NNW,338,5.8,5.8,83,0.00,CLR,,0.00,WeatherDisplay:10.37,2013-03-28 07:41:00,
2013-03-28 03:46:00,49.9,44.6,30.17,NW,323,3.5,3.5,82,0.00,CLR,,0.00,WeatherDisplay:10.37,2013-03-28 07:46:00,
2013-03-28 03:51:00,49.8,44.5,30.17,NNW,347,3.5,3.5,82,0.00,CLR,,0.00,WeatherDisplay:10.37,2013-03-28 07:51:00,
2013-03-28 03:56:00,49.7,44.7,30.17,NNW,344,3.5,3.5,83,0.00,CLR,,0.00,WeatherDisplay:10.37,2013-03-28 07:56:00,
2013-03-28 04:01:00,49.7,44.7,30.17,NNW,331,3.5,3.5,83,0.00,CLR,,0.00,WeatherDisplay:10.37,2013-03-28 08:01:00,
2013-03-28 04:06:00,49.7,44.7,30.17,NNW,339,2.3,2.3,83,0.00,CLR,,0.00,WeatherDisplay:10.37,2013-03-28 08:06:00,
2013-03-28 04:11:00,49.6,45.0,30.17,NW,319,2.3,2.3,84,0.00,CLR,,0.00,WeatherDisplay:10.37,2013-03-28 08:11:00,
2013-03-28 04:16:00,49.5,44.9,30.17,NW,321,3.5,3.5,84,0.00,CLR,,0.00,WeatherDisplay:10.37,2013-03-28 08:16:00,
2013-03-28 04:21:00,49.4,44.8,30.17,NW,324,3.5,3.5,84,0.00,CLR,,0.00,WeatherDisplay:10.37,2013-03-28 08:21:00,
2013-03-28 04:26:00,49.3,45.0,30.17,NNW,327,3.5,3.5,85,0.00,CLR,,0.00,WeatherDisplay:10.37,2013-03-28 08:26:00,
2013-03-28 04:31:00,49.2,44.9,30.17,NW,325,3.5,3.5,85,0.00,CLR,,0.00,WeatherDisplay:10.37,2013-03-28 08:31:00,
2013-03-28 04:36:00,49.2,44.9,30.17,NNW,328,3.5,3.5,85,0.00,CLR,,0.00,WeatherDisplay:10.37,2013-03-28 08:36:00,
2013-03-28 04:41:00,49.1,45.1,30.17,NW,322,3.5,3.5,86,0.00,CLR,,0.00,WeatherDisplay:10.37,2013-03-28 08:41:00,
2013-03-28 04:46:00,49.1,44.8,30.17,NW,326,3.5,3.5,85,0.00,CLR,,0.00,WeatherDisplay:10.37,2013-03-28 08:46:00,
2013-03-28 04:51:00,49.0,45.0,30.17,NW,322,4.6,4.6,86,0.00,CLR,,0.00,WeatherDisplay:10.37,2013-03-28 08:51:00,
2013-03-28 04:56:00,49.1,44.8,30.17,NW,311,5.8,5.8,85,0.00,CLR,,0.00,WeatherDisplay:10.37,2013-03-28 08:56:00,
2013-03-28 05:01:00,49.1,44.8,30.17,NW,318,6.9,6.9,85,0.00,CLR,,0.00,WeatherDisplay:10.37,2013-03-28 09:01:00,
2013-03-28 05:06:00,49.1,44.5,30.17,NW,324,6.9,6.9,84,0.00,CLR,,0.00,WeatherDisplay:10.37,2013-03-28 09:06:00,
2013-03-28 05:11:00,49.0,44.1,30.17,NNW,338,6.0,6.0,83,0.00,CLR,,0.00,WeatherDisplay:10.37,2013-03-28 09:11:00,
2013-03-28 05:16:00,49.0,44.1,30.17,NW,310,4.6,4.6,83,0.00,CLR,,0.00,WeatherDisplay:10.37,2013-03-28 09:16:00,
2013-03-28 05:21:00,48.9,44.0,30.17,NW,308,6.9,6.9,83,0.00,CLR,,0.00,WeatherDisplay:10.37,2013-03-28 09:21:00,
2013-03-28 05:26:00,48.7,43.8,30.17,WNW,299,4.6,4.6,83,0.00,CLR,,0.00,WeatherDisplay:10.37,2013-03-28 09:26:00,
2013-03-28 05:31:00,48.6,43.7,30.17,NNW,338,6.9,6.9,83,0.00,CLR,,0.00,WeatherDisplay:10.37,2013-03-28 09:31:00,
2013-03-28 05:36:00,48.4,43.5,30.17,WNW,293,6.9,6.9,83,0.00,CLR,,0.00,WeatherDisplay:10.37,2013-03-28 09:36:00,
2013-03-28 05:41:00,48.3,43.4,30.17,NNW,334,8.1,8.1,83,0.00,CLR,,0.00,WeatherDisplay:10.37,2013-03-28 09:41:00,
2013-03-28 05:46:00,48.1,43.2,30.18,NNW,343,4.6,4.6,83,0.00,CLR,,0.00,WeatherDisplay:10.37,2013-03-28 09:46:00,
2013-03-28 05:51:00,47.9,43.3,30.18,NW,315,9.2,9.2,84,0.00,CLR,,0.00,WeatherDisplay:10.37,2013-03-28 09:51:00,
2013-03-28 05:56:00,47.7,42.8,30.18,NNW,338,9.2,9.2,83,0.00,CLR,,0.00,WeatherDisplay:10.37,2013-03-28 09:56:00,
2013-03-28 06:01:00,47.6,43.0,30.18,NW,308,10.4,10.4,84,0.00,CLR,,0.00,WeatherDisplay:10.37,2013-03-28 10:01:00,
2013-03-28 06:06:00,47.4,42.8,30.18,WNW,298,5.8,5.8,84,0.00,CLR,,0.00,WeatherDisplay:10.37,2013-03-28 10:06:00,
2013-03-28 06:11:00,47.2,42.9,30.18,NW,312,6.9,6.9,85,0.00,CLR,,0.00,WeatherDisplay:10.37,2013-03-28 10:11:00,
2013-03-28 06:16:00,47.1,42.8,30.18,NNW,337,6.0,6.0,85,0.00,CLR,,0.00,WeatherDisplay:10.37,2013-03-28 10:16:00,
2013-03-28 06:21:00,47.0,42.7,30.18,NW,315,4.6,4.6,85,0.00,CLR,,0.00,WeatherDisplay:10.37,2013-03-28 10:21:00,
2013-03-28 06:26:00,46.9,42.9,30.18,NW,320,4.6,4.6,86,0.00,CLR,,0.00,WeatherDisplay:10.37,2013-03-28 10:26:00,
2013-03-28 06:31:00,46.7,42.7,30.18,NW,322,4.0,4.0,86,0.00,CLR,,0.00,WeatherDisplay:10.37,2013-03-28 10:31:00,
2013-03-28 06:36:00,46.7,42.7,30.19,NNW,342,9.2,9.2,86,0.00,CLR,,0.00,WeatherDisplay:10.37,2013-03-28 10:36:00,
2013-03-28 06:41:00,46.7,42.7,30.19,NNW,329,9.2,9.2,86,0.00,CLR,,0.00,WeatherDisplay:10.37,2013-03-28 10:41:00,
2013-03-28 06:46:00,46.6,42.6,30.19,NW,324,4.6,4.6,86,0.00,CLR,,0.00,WeatherDisplay:10.37,2013-03-28 10:46:00,
2013-03-28 06:51:00,46.5,42.8,30.19,NW,311,5.8,5.8,87,0.00,CLR,,0.00,WeatherDisplay:10.37,2013-03-28 10:51:00,
2013-03-28 06:56:00,46.5,42.8,30.19,NNW,330,9.2,9.2,87,0.00,CLR,,0.00,WeatherDisplay:10.37,2013-03-28 10:56:00,
2013-03-28 07:01:00,46.5,42.8,30.19,NNW,344,6.9,6.9,87,0.00,CLR,,0.00,WeatherDisplay:10.37,2013-03-28 11:01:00,
2013-03-28 07:06:00,46.4,42.7,30.19,WNW,294,6.9,6.9,87,0.00,CLR,,0.00,WeatherDisplay:10.37,2013-03-28 11:06:00,
2013-03-28 07:11:00,46.4,42.7,30.19,NW,316,9.0,9.0,87,0.00,CLR,,0.00,WeatherDisplay:10.37,2013-03-28 11:11:00,
2013-03-28 07:16:00,46.4,42.7,30.19,WNW,301,4.6,4.7,87,0.00,CLR,,0.00,WeatherDisplay:10.37,2013-03-28 11:16:00,
2013-03-28 07:21:00,46.4,42.7,30.19,WNW,303,6.9,6.9,87,0.00,CLR,,0.00,WeatherDisplay:10.37,2013-03-28 11:21:00,
2013-03-28 07:26:00,46.4,42.7,30.19,NNW,331,9.2,9.2,87,0.00,CLR,,0.00,WeatherDisplay:10.37,2013-03-28 11:26:00,
2013-03-28 07:31:00,46.6,42.9,30.19,NNW,344,6.9,6.9,87,0.00,CLR,,0.00,WeatherDisplay:10.37,2013-03-28 11:31:00,
2013-03-28 07:36:00,46.9,43.2,30.19,NW,313,6.9,6.9,87,0.00,CLR,,0.00,WeatherDisplay:10.37,2013-03-28 11:36:00,
2013-03-28 07:41:00,47.2,43.2,30.20,NNW,340,5.8,5.8,86,0.00,CLR,,0.00,WeatherDisplay:10.37,2013-03-28 11:41:00,
2013-03-28 07:46:00,47.6,43.3,30.20,WNW,293,9.2,9.2,85,0.00,CLR,,0.00,WeatherDisplay:10.37,2013-03-28 11:46:00,
2013-03-28 07:51:00,48.0,43.4,30.20,WNW,298,5.8,5.8,84,0.00,CLR,,0.00,WeatherDisplay:10.37,2013-03-28 11:51:00,
2013-03-28 07:56:00,48.4,43.5,30.20,NW,313,5.8,5.8,83,0.00,CLR,,0.00,WeatherDisplay:10.37,2013-03-28 11:56:00,
2013-03-28 08:01:00,48.8,43.2,30.20,North,360,6.0,6.0,81,0.00,CLR,,0.00,WeatherDisplay:10.37,2013-03-28 12:01:00,
2013-03-28 08:06:00,49.4,43.5,30.20,NNW,333,6.9,6.9,80,0.00,CLR,,0.00,WeatherDisplay:10.37,2013-03-28 12:06:00,
2013-03-28 08:11:00,49.9,43.6,30.20,NW,317,5.8,5.8,79,0.00,CLR,,0.00,WeatherDisplay:10.37,2013-03-28 12:11:00,
2013-03-28 08:16:00,50.5,43.6,30.20,NNW,329,6.0,6.0,77,0.00,CLR,,0.00,WeatherDisplay:10.37,2013-03-28 12:16:00,
2013-03-28 08:21:00,51.1,43.8,30.20,NW,309,6.9,6.9,76,0.00,CLR,,0.00,WeatherDisplay:10.37,2013-03-28 12:21:00,
2013-03-28 08:26:00,51.7,42.6,30.20,NNW,336,10.4,10.4,71,0.00,CLR,,0.00,WeatherDisplay:10.37,2013-03-28 12:26:00,
2013-03-28 08:31:00,52.3,43.2,30.20,NW,325,12.7,12.7,71,0.00,CLR,,0.00,WeatherDisplay:10.37,2013-03-28 12:31:00,
2013-03-28 08:36:00,52.7,43.2,30.21,NNW,338,10.4,10.4,70,0.00,CLR,,0.00,WeatherDisplay:10.37,2013-03-28 12:36:00,
2013-03-28 08:41:00,53.2,44.0,30.21,North,5,11.5,11.5,71,0.00,CLR,,0.00,WeatherDisplay:10.37,2013-03-28 12:41:00,
2013-03-28 08:46:00,53.9,44.3,30.21,NNW,340,6.0,6.0,70,0.00,CLR,,0.00,WeatherDisplay:10.37,2013-03-28 12:46:00,
2013-03-28 08:51:00,54.4,44.8,30.21,NW,322,7.0,7.0,70,0.00,CLR,,0.00,WeatherDisplay:10.37,2013-03-28 12:51:00,
2013-03-28 08:56:00,54.8,44.8,30.21,NNW,327,9.2,9.2,69,0.00,CLR,,0.00,WeatherDisplay:10.37,2013-03-28 12:56:00,
2013-03-28 09:01:00,55.2,44.4,30.21,NNW,342,11.5,11.5,67,0.00,CLR,,0.00,WeatherDisplay:10.37,2013-03-28 13:01:00,
2013-03-28 09:06:00,55.5,44.7,30.21,NNW,342,11.5,11.5,67,0.00,CLR,,0.00,WeatherDisplay:10.37,2013-03-28 13:06:00,
2013-03-28 09:11:00,55.9,45.1,30.22,NW,320,11.5,11.5,67,0.00,CLR,,0.00,WeatherDisplay:10.37,2013-03-28 13:11:00,
2013-03-28 09:16:00,56.3,45.5,30.22,NW,322,11.5,11.5,67,0.00,CLR,,0.00,WeatherDisplay:10.37,2013-03-28 13:16:00,
2013-03-28 09:21:00,56.7,45.5,30.22,NNE,30,10.4,10.4,66,0.00,CLR,,0.00,WeatherDisplay:10.37,2013-03-28 13:21:00,
2013-03-28 09:26:00,57.3,46.8,30.22,NNW,333,8.1,8.1,68,0.00,CLR,,0.00,WeatherDisplay:10.37,2013-03-28 13:26:00,
2013-03-28 09:31:00,58.0,46.3,30.23,NNW,329,11.5,11.5,65,0.00,CLR,,0.00,WeatherDisplay:10.37,2013-03-28 13:31:00,
2013-03-28 09:36:00,58.4,47.1,30.23,NW,324,11.0,11.0,66,0.00,CLR,,0.00,WeatherDisplay:10.37,2013-03-28 13:36:00,
2013-03-28 09:41:00,58.9,47.2,30.23,NNW,331,11.0,11.0,65,0.00,CLR,,0.00,WeatherDisplay:10.37,2013-03-28 13:41:00,
2013-03-28 09:46:00,59.5,47.7,30.23,North,355,9.2,9.2,65,0.00,CLR,,0.00,WeatherDisplay:10.37,2013-03-28 13:46:00,
2013-03-28 09:51:00,60.1,47.9,30.23,NNW,335,10.4,10.4,64,0.00,CLR,,0.00,WeatherDisplay:10.37,2013-03-28 13:51:00,
2013-03-28 09:56:00,60.3,48.1,30.24,NW,309,6.0,6.0,64,0.00,CLR,,0.00,WeatherDisplay:10.37,2013-03-28 13:56:00,
2013-03-28 10:02:00,60.8,48.5,30.23,North,355,10.4,10.4,64,0.00,CLR,,0.00,WeatherDisplay:10.37,2013-03-28 14:02:00,
2013-03-28 10:07:00,61.3,49.0,30.24,NNE,26,9.2,9.2,64,0.00,CLR,,0.00,WeatherDisplay:10.37,2013-03-28 14:07:00,
2013-03-28 10:12:00,61.9,49.6,30.24,North,10,9.2,9.2,64,0.00,CLR,,0.00,WeatherDisplay:10.37,2013-03-28 14:12:00,
2013-03-28 10:17:00,62.3,49.5,30.24,North,355,10.0,10.0,63,0.00,CLR,,0.00,WeatherDisplay:10.37,2013-03-28 14:17:00,
2013-03-28 10:22:00,62.5,49.3,30.24,North,355,11.5,11.5,62,0.00,CLR,,0.00,WeatherDisplay:10.37,2013-03-28 14:22:00,
2013-03-28 10:27:00,62.9,50.1,30.24,NNW,335,6.9,6.9,63,0.00,CLR,,0.00,WeatherDisplay:10.37,2013-03-28 14:27:00,
2013-03-28 10:32:00,63.3,49.2,30.24,NNW,327,10.4,10.4,60,0.00,CLR,,0.00,WeatherDisplay:10.37,2013-03-28 14:32:00,
2013-03-28 10:37:00,63.1,49.0,30.24,NNW,329,11.5,11.5,60,0.00,CLR,,0.00,WeatherDisplay:10.37,2013-03-28 14:37:00,
2013-03-28 10:42:00,63.2,48.6,30.24,NNE,28,11.5,11.5,59,0.00,CLR,,0.00,WeatherDisplay:10.37,2013-03-28 14:42:00,
2013-03-28 10:47:00,63.6,49.0,30.24,West,278,10.4,10.4,59,0.00,CLR,,0.00,WeatherDisplay:10.37,2013-03-28 14:47:00,
2013-03-28 10:52:00,64.2,50.0,30.24,North,5,11.5,11.5,60,0.00,CLR,,0.00,WeatherDisplay:10.37,2013-03-28 14:52:00,
2013-03-28 10:57:00,64.5,49.4,30.24,NNE,18,11.5,11.5,58,0.00,CLR,,0.00,WeatherDisplay:10.37,2013-03-28 14:57:00,
2013-03-28 11:02:00,64.4,49.3,30.24,NNW,344,11.5,11.5,58,0.00,CLR,,0.00,WeatherDisplay:10.37,2013-03-28 15:02:00,
2013-03-28 11:07:00,64.9,49.8,30.24,NW,324,8.1,8.1,58,0.00,CLR,,0.00,WeatherDisplay:10.37,2013-03-28 15:07:00,
2013-03-28 11:12:00,65.2,49.1,30.24,NE,53,13.8,13.8,56,0.00,CLR,,0.00,WeatherDisplay:10.37,2013-03-28 15:12:00,
2013-03-28 11:17:00,65.3,49.2,30.24,NNW,331,11.5,11.5,56,0.00,CLR,,0.00,WeatherDisplay:10.37,2013-03-28 15:17:00,
2013-03-28 11:22:00,65.4,49.3,30.24,North,350,10.4,10.4,56,0.00,CLR,,0.00,WeatherDisplay:10.37,2013-03-28 15:22:00,
2013-03-28 11:27:00,65.9,49.3,30.24,WNW,299,9.2,9.2,55,0.00,CLR,,0.00,WeatherDisplay:10.37,2013-03-28 15:27:00,
2013-03-28 11:32:00,66.6,49.4,30.24,NNW,343,11.5,11.5,54,0.00,CLR,,0.00,WeatherDisplay:10.37,2013-03-28 15:32:00,
2013-03-28 11:37:00,66.9,48.7,30.24,NNE,21,10.4,10.4,52,0.00,CLR,,0.00,WeatherDisplay:10.37,2013-03-28 15:37:00,
2013-03-28 11:42:00,67.1,47.3,30.25,NNW,327,11.5,11.5,49,0.00,CLR,,0.00,WeatherDisplay:10.37,2013-03-28 15:42:00,
2013-03-28 11:47:00,67.2,47.9,30.24,North,5,11.0,11.0,50,0.00,CLR,,0.00,WeatherDisplay:10.37,2013-03-28 15:47:00,
2013-03-28 11:52:00,67.2,46.3,30.24,NW,323,9.2,9.2,47,0.00,CLR,,0.00,WeatherDisplay:10.37,2013-03-28 15:52:00,
2013-03-28 11:57:00,67.4,46.5,30.24,West,279,8.1,8.1,47,0.00,CLR,,0.00,WeatherDisplay:10.37,2013-03-28 15:57:00,
2013-03-28 12:02:00,68.0,45.3,30.24,NW,318,4.0,4.0,44,0.00,CLR,,0.00,WeatherDisplay:10.37,2013-03-28 16:02:00,
2013-03-28 12:07:00,68.5,47.5,30.24,NNE,22,5.8,5.8,47,0.00,CLR,,0.00,WeatherDisplay:10.37,2013-03-28 16:07:00,
2013-03-28 12:12:00,68.8,45.4,30.24,NNW,342,5.8,5.8,43,0.00,CLR,,0.00,WeatherDisplay:10.37,2013-03-28 16:12:00,
2013-03-28 12:17:00,68.9,42.9,30.24,North,350,6.9,6.9,39,0.00,CLR,,0.00,WeatherDisplay:10.37,2013-03-28 16:17:00,
2013-03-28 12:22:00,68.9,43.6,30.24,WNW,285,3.5,3.5,40,0.00,CLR,,0.00,WeatherDisplay:10.37,2013-03-28 16:22:00,
2013-03-28 12:27:00,69.0,45.6,30.24,NNW,329,6.0,6.0,43,0.00,CLR,,0.00,WeatherDisplay:10.37,2013-03-28 16:27:00,
2013-03-28 12:32:00,69.2,45.7,30.23,NW,316,4.6,4.6,43,0.00,CLR,,0.00,WeatherDisplay:10.37,2013-03-28 16:32:00,
2013-03-28 12:37:00,69.4,46.5,30.23,ENE,75,4.6,4.6,44,0.00,CLR,,0.00,WeatherDisplay:10.37,2013-03-28 16:37:00,
2013-03-28 12:42:00,69.2,46.9,30.23,NE,44,4.6,4.6,45,0.00,CLR,,0.00,WeatherDisplay:10.37,2013-03-28 16:42:00,
2013-03-28 12:47:00,69.1,47.4,30.23,NNW,340,7.0,7.0,46,0.00,CLR,,0.00,WeatherDisplay:10.37,2013-03-28 16:47:00,
2013-03-28 12:52:00,69.2,45.1,30.23,NNW,344,5.0,5.0,42,0.00,CLR,,0.00,WeatherDisplay:10.37,2013-03-28 16:52:00,
2013-03-28 12:57:00,69.9,47.6,30.23,NE,42,4.6,4.6,45,0.00,CLR,,0.00,WeatherDisplay:10.37,2013-03-28 16:57:00,
2013-03-28 13:02:00,70.3,47.3,30.22,ENE,76,9.0,9.0,44,0.00,CLR,,0.00,WeatherDisplay:10.37,2013-03-28 17:02:00,
2013-03-28 13:07:00,69.7,45.6,30.22,ENE,64,5.0,5.0,42,0.00,CLR,,0.00,WeatherDisplay:10.37,2013-03-28 17:07:00,
2013-03-28 13:12:00,69.2,46.4,30.22,WNW,302,4.6,4.6,44,0.00,CLR,,0.00,WeatherDisplay:10.37,2013-03-28 17:12:00,
2013-03-28 13:17:00,70.0,48.3,30.22,North,349,7.0,7.0,46,0.00,CLR,,0.00,WeatherDisplay:10.37,2013-03-28 17:17:00,
2013-03-28 13:22:00,70.2,47.3,30.22,NE,40,10.4,10.4,44,0.00,CLR,,0.00,WeatherDisplay:10.37,2013-03-28 17:22:00,
2013-03-28 13:27:00,70.2,46.0,30.22,NE,49,2.3,2.3,42,0.00,CLR,,0.00,WeatherDisplay:10.37,2013-03-28 17:27:00,
2013-03-28 13:32:00,70.6,45.7,30.21,NNE,21,4.6,4.6,41,0.00,CLR,,0.00,WeatherDisplay:10.37,2013-03-28 17:32:00,
2013-03-28 13:37:00,70.8,47.2,30.21,ENE,67,5.0,5.0,43,0.00,CLR,,0.00,WeatherDisplay:10.37,2013-03-28 17:37:00,
2013-03-28 13:42:00,70.4,48.6,30.21,NE,48,10.0,10.0,46,0.00,CLR,,0.00,WeatherDisplay:10.37,2013-03-28 17:42:00,
2013-03-28 13:47:00,69.8,48.7,30.21,ENE,61,10.4,10.4,47,0.00,CLR,,0.00,WeatherDisplay:10.37,2013-03-28 17:47:00,
2013-03-28 13:52:00,68.6,48.1,30.20,NNE,22,11.5,11.5,48,0.00,CLR,,0.00,WeatherDisplay:10.37,2013-03-28 17:52:00,
2013-03-28 13:57:00,68.4,48.5,30.20,ENE,58,6.9,6.9,49,0.00,CLR,,0.00,WeatherDisplay:10.37,2013-03-28 17:57:00,
2013-03-28 14:02:00,68.7,49.3,30.20,ENE,76,11.5,11.5,50,0.00,CLR,,0.00,WeatherDisplay:10.37,2013-03-28 18:02:00,
2013-03-28 14:07:00,68.3,49.5,30.20,NE,39,11.5,11.5,51,0.00,CLR,,0.00,WeatherDisplay:10.37,2013-03-28 18:07:00,
2013-03-28 14:12:00,68.7,49.3,30.19,ENE,63,8.1,8.1,50,0.00,CLR,,0.00,WeatherDisplay:10.37,2013-03-28 18:12:00,
2013-03-28 14:17:00,69.1,50.2,30.19,North,10,9.2,9.2,51,0.00,CLR,,0.00,WeatherDisplay:10.37,2013-03-28 18:17:00,
2013-03-28 14:22:00,69.4,49.9,30.19,ENE,58,11.5,11.5,50,0.00,CLR,,0.00,WeatherDisplay:10.37,2013-03-28 18:22:00,
2013-03-28 14:27:00,69.7,49.7,30.19,East,79,11.5,11.5,49,0.00,CLR,,0.00,WeatherDisplay:10.37,2013-03-28 18:27:00,
2013-03-28 14:32:00,68.4,49.0,30.19,NNE,13,11.5,11.5,50,0.00,CLR,,0.00,WeatherDisplay:10.37,2013-03-28 18:32:00,
2013-03-28 14:37:00,68.8,48.9,30.18,NNE,32,9.2,9.2,49,0.00,CLR,,0.00,WeatherDisplay:10.37,2013-03-28 18:37:00,
2013-03-28 14:42:00,68.5,49.1,30.18,NE,46,10.4,10.4,50,0.00,CLR,,0.00,WeatherDisplay:10.37,2013-03-28 18:42:00,
2013-03-28 14:47:00,68.1,48.8,30.18,ENE,74,10.4,10.4,50,0.00,CLR,,0.00,WeatherDisplay:10.37,2013-03-28 18:47:00,
2013-03-28 14:52:00,68.3,49.5,30.18,NE,42,11.5,11.5,51,0.00,CLR,,0.00,WeatherDisplay:10.37,2013-03-28 18:52:00,
2013-03-28 14:57:00,69.1,49.7,30.18,NNE,31,12.7,12.7,50,0.00,CLR,,0.00,WeatherDisplay:10.37,2013-03-28 18:57:00,
2013-03-28 15:02:00,68.9,49.5,30.18,NE,53,12.7,12.7,50,0.00,CLR,,0.00,WeatherDisplay:10.37,2013-03-28 19:02:00,
2013-03-28 15:07:00,68.9,49.5,30.17,NE,51,10.4,10.4,50,0.00,CLR,,0.00,WeatherDisplay:10.37,2013-03-28 19:07:00,
2013-03-28 15:12:00,69.1,49.1,30.17,ENE,71,7.0,7.0,49,0.00,CLR,,0.00,WeatherDisplay:10.37,2013-03-28 19:12:00,
2013-03-28 15:17:00,69.2,49.2,30.17,ENE,75,13.8,13.8,49,0.00,CLR,,0.00,WeatherDisplay:10.37,2013-03-28 19:17:00,
2013-03-28 15:22:00,68.8,48.9,30.17,ENE,62,12.0,12.0,49,0.00,CLR,,0.00,WeatherDisplay:10.37,2013-03-28 19:22:00,
2013-03-28 15:27:00,67.6,47.8,30.17,East,86,12.7,12.7,49,0.00,CLR,,0.00,WeatherDisplay:10.37,2013-03-28 19:27:00,
2013-03-28 15:32:00,67.7,48.4,30.17,NNE,33,12.7,12.7,50,0.00,CLR,,0.00,WeatherDisplay:10.37,2013-03-28 19:32:00,
2013-03-28 15:37:00,68.1,48.2,30.17,NNE,13,11.5,11.5,49,0.00,CLR,,0.00,WeatherDisplay:10.37,2013-03-28 19:37:00,
2013-03-28 15:42:00,68.9,48.4,30.16,ENE,78,11.5,11.5,48,0.00,CLR,,0.00,WeatherDisplay:10.37,2013-03-28 19:42:00,
2013-03-28 15:47:00,68.5,48.0,30.16,NNE,28,11.5,11.5,48,0.00,CLR,,0.00,WeatherDisplay:10.37,2013-03-28 19:47:00,
2013-03-28 15:52:00,69.3,48.2,30.16,NE,52,6.9,6.9,47,0.00,CLR,,0.00,WeatherDisplay:10.37,2013-03-28 19:52:00,
2013-03-28 15:57:00,69.7,48.0,30.16,NNE,33,10.4,10.4,46,0.00,CLR,,0.00,WeatherDisplay:10.37,2013-03-28 19:57:00,
2013-03-28 16:02:00,69.3,47.6,30.16,ENE,72,10.4,10.4,46,0.00,CLR,,0.00,WeatherDisplay:10.37,2013-03-28 20:02:00,
2013-03-28 16:07:00,68.5,46.9,30.15,ENE,72,13.8,13.8,46,0.00,CLR,,0.00,WeatherDisplay:10.37,2013-03-28 20:07:00,
2013-03-28 16:12:00,68.8,47.2,30.15,ENE,65,11.0,11.0,46,0.00,CLR,,0.00,WeatherDisplay:10.37,2013-03-28 20:12:00,
2013-03-28 16:17:00,68.5,45.7,30.15,NE,46,14.0,14.0,44,0.00,CLR,,0.00,WeatherDisplay:10.37,2013-03-28 20:17:00,
2013-03-28 16:22:00,68.9,46.1,30.15,ENE,61,11.5,11.5,44,0.00,CLR,,0.00,WeatherDisplay:10.37,2013-03-28 20:22:00,
2013-03-28 16:27:00,69.1,45.7,30.15,NE,42,11.0,11.0,43,0.00,CLR,,0.00,WeatherDisplay:10.37,2013-03-28 20:27:00,
2013-03-28 16:32:00,69.2,43.8,30.15,ENE,64,11.5,11.5,40,0.00,CLR,,0.00,WeatherDisplay:10.37,2013-03-28 20:32:00,
2013-03-28 16:37:00,68.5,43.9,30.15,ENE,69,15.0,15.0,41,0.00,CLR,,0.00,WeatherDisplay:10.37,2013-03-28 20:37:00,
2013-03-28 16:42:00,68.1,44.7,30.15,ENE,61,11.5,11.5,43,0.00,CLR,,0.00,WeatherDisplay:10.37,2013-03-28 20:42:00,
2013-03-28 16:47:00,67.8,44.5,30.15,NE,56,12.7,12.7,43,0.00,CLR,,0.00,WeatherDisplay:10.37,2013-03-28 20:47:00,
2013-03-28 16:52:00,67.4,43.5,30.15,ENE,61,11.5,11.5,42,0.00,CLR,,0.00,WeatherDisplay:10.37,2013-03-28 20:52:00,
2013-03-28 16:57:00,67.3,42.1,30.15,ENE,57,15.0,15.0,40,0.00,CLR,,0.00,WeatherDisplay:10.37,2013-03-28 20:57:00,
2013-03-28 17:02:00,67.4,43.5,30.15,ENE,71,11.5,11.5,42,0.00,CLR,,0.00,WeatherDisplay:10.37,2013-03-28 21:02:00,
2013-03-28 17:07:00,67.4,43.5,30.15,NE,40,12.7,12.7,42,0.00,CLR,,0.00,WeatherDisplay:10.37,2013-03-28 21:07:00,
2013-03-28 17:12:00,67.6,44.3,30.15,ENE,69,9.2,9.2,43,0.00,CLR,,0.00,WeatherDisplay:10.37,2013-03-28 21:12:00,
2013-03-28 17:17:00,67.5,42.3,30.15,ENE,66,11.5,11.5,40,0.00,CLR,,0.00,WeatherDisplay:10.37,2013-03-28 21:17:00,
2013-03-28 17:22:00,67.6,43.1,30.14,NE,47,15.0,15.0,41,0.00,CLR,,0.00,WeatherDisplay:10.37,2013-03-28 21:22:00,
2013-03-28 17:27:00,67.3,41.5,30.15,ENE,63,12.7,12.7,39,0.00,CLR,,0.00,WeatherDisplay:10.37,2013-03-28 21:27:00,
2013-03-28 17:32:00,67.0,41.2,30.15,NE,40,16.1,16.1,39,0.00,CLR,,0.00,WeatherDisplay:10.37,2013-03-28 21:32:00,
2013-03-28 17:37:00,66.7,41.6,30.15,ENE,67,13.0,13.0,40,0.00,CLR,,0.00,WeatherDisplay:10.37,2013-03-28 21:37:00,
2013-03-28 17:42:00,66.8,43.0,30.15,NE,48,15.0,15.0,42,0.00,CLR,,0.00,WeatherDisplay:10.37,2013-03-28 21:42:00,
2013-03-28 17:47:00,66.9,43.0,30.15,ENE,69,10.4,10.4,42,0.00,CLR,,0.00,WeatherDisplay:10.37,2013-03-28 21:47:00,
2013-03-28 17:52:00,66.7,42.2,30.15,ENE,63,12.7,12.7,41,0.00,CLR,,0.00,WeatherDisplay:10.37,2013-03-28 21:52:00,
2013-03-28 17:57:00,66.5,42.1,30.15,ENE,71,11.5,11.5,41,0.00,CLR,,0.00,WeatherDisplay:10.37,2013-03-28 21:57:00,
2013-03-28 18:02:00,66.9,42.4,30.15,NNE,30,12.7,12.7,41,0.00,CLR,,0.00,WeatherDisplay:10.37,2013-03-28 22:02:00,
2013-03-28 18:07:00,67.0,41.9,30.16,NNE,30,11.5,11.5,40,0.00,CLR,,0.00,WeatherDisplay:10.37,2013-03-28 22:07:00,
2013-03-28 18:12:00,66.9,42.4,30.16,East,85,6.9,6.9,41,0.00,CLR,,0.00,WeatherDisplay:10.37,2013-03-28 22:12:00,
2013-03-28 18:17:00,66.5,42.1,30.16,ENE,74,12.7,12.7,41,0.00,CLR,,0.00,WeatherDisplay:10.37,2013-03-28 22:17:00,
2013-03-28 18:22:00,66.7,42.2,30.16,NNE,13,11.5,11.5,41,0.00,CLR,,0.00,WeatherDisplay:10.37,2013-03-28 22:22:00,
2013-03-28 18:27:00,66.7,42.9,30.16,ENE,65,11.5,11.5,42,0.00,CLR,,0.00,WeatherDisplay:10.37,2013-03-28 22:27:00,
2013-03-28 18:32:00,66.3,43.7,30.16,NE,51,11.5,11.5,44,0.00,CLR,,0.00,WeatherDisplay:10.37,2013-03-28 22:32:00,
2013-03-28 18:37:00,66.2,43.0,30.16,NE,47,11.5,11.5,43,0.00,CLR,,0.00,WeatherDisplay:10.37,2013-03-28 22:37:00,
2013-03-28 18:42:00,66.4,43.2,30.16,NE,43,11.5,11.5,43,0.00,CLR,,0.00,WeatherDisplay:10.37,2013-03-28 22:42:00,
2013-03-28 18:47:00,66.4,42.6,30.16,North,355,15.0,15.0,42,0.00,CLR,,0.00,WeatherDisplay:10.37,2013-03-28 22:47:00,
2013-03-28 18:52:00,66.2,43.0,30.17,NNE,33,13.8,13.8,43,0.00,CLR,,0.00,WeatherDisplay:10.37,2013-03-28 22:52:00,
2013-03-28 18:57:00,65.9,43.4,30.17,NE,44,12.7,12.7,44,0.00,CLR,,0.00,WeatherDisplay:10.37,2013-03-28 22:57:00,
2013-03-28 19:02:00,65.6,41.9,30.17,NNE,28,15.0,15.0,42,0.00,CLR,,0.00,WeatherDisplay:10.37,2013-03-28 23:02:00,
2013-03-28 19:07:00,65.3,42.2,30.17,NE,35,12.0,12.0,43,0.00,CLR,,0.00,WeatherDisplay:10.37,2013-03-28 23:07:00,
2013-03-28 19:12:00,65.0,42.5,30.18,NE,40,11.5,11.5,44,0.00,CLR,,0.00,WeatherDisplay:10.37,2013-03-28 23:12:00,
2013-03-28 19:17:00,64.8,42.4,30.18,NNE,26,12.0,12.0,44,0.00,CLR,,0.00,WeatherDisplay:10.37,2013-03-28 23:17:00,
2013-03-28 19:22:00,64.6,41.6,30.18,North,9,10.0,10.0,43,0.00,CLR,,0.00,WeatherDisplay:10.37,2013-03-28 23:22:00,
2013-03-28 19:27:00,64.4,41.4,30.18,NNE,31,11.5,11.5,43,0.00,CLR,,0.00,WeatherDisplay:10.37,2013-03-28 23:27:00,
2013-03-28 19:32:00,64.1,41.1,30.18,NNE,17,11.5,11.5,43,0.00,CLR,,0.00,WeatherDisplay:10.37,2013-03-28 23:32:00,
2013-03-28 19:37:00,63.9,41.5,30.19,ENE,63,10.4,10.4,44,0.00,CLR,,0.00,WeatherDisplay:10.37,2013-03-28 23:37:00,
2013-03-28 19:42:00,63.7,41.4,30.19,North,11,5.8,5.8,44,0.00,CLR,,0.00,WeatherDisplay:10.37,2013-03-28 23:42:00,
2013-03-28 19:47:00,63.5,41.2,30.19,North,9,8.1,8.1,44,0.00,CLR,,0.00,WeatherDisplay:10.37,2013-03-28 23:47:00,
2013-03-28 19:52:00,63.3,41.6,30.19,NNE,21,3.5,3.5,45,0.00,CLR,,0.00,WeatherDisplay:10.37,2013-03-28 23:52:00,
2013-03-28 19:57:00,63.1,41.4,30.19,NNE,15,5.8,5.8,45,0.00,CLR,,0.00,WeatherDisplay:10.37,2013-03-28 23:57:00,
2013-03-28 20:02:00,62.9,41.2,30.19,NNE,15,3.5,3.5,45,0.00,CLR,,0.00,WeatherDisplay:10.37,2013-03-29 00:02:00,
2013-03-28 20:07:00,62.6,40.9,30.19,North,350,3.5,3.5,45,0.00,CLR,,0.00,WeatherDisplay:10.37,2013-03-29 00:07:00,
2013-03-28 20:12:00,62.3,40.7,30.19,North,5,4.6,4.6,45,0.00,CLR,,0.00,WeatherDisplay:10.37,2013-03-29 00:12:00,
2013-03-28 20:17:00,62.2,40.0,30.19,North,5,5.8,5.8,44,0.00,CLR,,0.00,WeatherDisplay:10.37,2013-03-29 00:17:00,
2013-03-28 20:22:00,62.0,40.4,30.19,North,5,4.0,4.0,45,0.00,CLR,,0.00,WeatherDisplay:10.37,2013-03-29 00:22:00,
2013-03-28 20:27:00,61.7,40.7,30.19,NNE,28,3.5,3.5,46,0.00,CLR,,0.00,WeatherDisplay:10.37,2013-03-29 00:27:00,
2013-03-28 20:32:00,61.5,40.5,30.20,North,5,5.8,5.8,46,0.00,CLR,,0.00,WeatherDisplay:10.37,2013-03-29 00:32:00,
2013-03-28 20:37:00,61.4,41.0,30.20,NNE,17,4.0,4.0,47,0.00,CLR,,0.00,WeatherDisplay:10.37,2013-03-29 00:37:00,
2013-03-28 20:42:00,61.3,40.9,30.20,NNE,25,3.5,3.5,47,0.00,CLR,,0.00,WeatherDisplay:10.37,2013-03-29 00:42:00,
2013-03-28 20:47:00,61.1,40.7,30.20,NE,34,5.8,5.8,47,0.00,CLR,,0.00,WeatherDisplay:10.37,2013-03-29 00:47:00,
2013-03-28 20:52:00,61.0,40.6,30.20,NNE,20,3.5,3.5,47,0.00,CLR,,0.00,WeatherDisplay:10.37,2013-03-29 00:52:00,
2013-03-28 20:57:00,60.9,40.5,30.20,NNE,19,3.5,3.5,47,0.00,CLR,,0.00,WeatherDisplay:10.37,2013-03-29 00:57:00,
2013-03-28 21:02:00,60.7,40.3,30.20,NE,34,3.5,3.5,47,0.00,CLR,,0.00,WeatherDisplay:10.37,2013-03-29 01:02:00,
2013-03-28 21:07:00,60.6,40.8,30.20,NNE,17,4.0,4.0,48,0.00,CLR,,0.00,WeatherDisplay:10.37,2013-03-29 01:07:00,
2013-03-28 21:12:00,60.4,40.6,30.20,NNE,17,4.0,4.0,48,0.00,CLR,,0.00,WeatherDisplay:10.37,2013-03-29 01:12:00,
2013-03-28 21:17:00,60.3,41.0,30.20,North,10,3.5,3.5,49,0.00,CLR,,0.00,WeatherDisplay:10.37,2013-03-29 01:17:00,
2013-03-28 21:22:00,60.2,41.0,30.20,NNE,15,4.0,4.0,49,0.00,CLR,,0.00,WeatherDisplay:10.37,2013-03-29 01:22:00,
2013-03-28 21:27:00,60.1,40.9,30.21,NNE,28,5.8,5.8,49,0.00,CLR,,0.00,WeatherDisplay:10.37,2013-03-29 01:27:00,
2013-03-28 21:32:00,60.0,40.8,30.21,NNE,15,3.5,3.5,49,0.00,CLR,,0.00,WeatherDisplay:10.37,2013-03-29 01:32:00,
2013-03-28 21:37:00,59.9,41.7,30.21,NNE,31,3.5,3.5,51,0.00,CLR,,0.00,WeatherDisplay:10.37,2013-03-29 01:37:00,
2013-03-28 21:42:00,59.7,41.5,30.21,NNE,23,3.5,3.5,51,0.00,CLR,,0.00,WeatherDisplay:10.37,2013-03-29 01:42:00,
2013-03-28 21:47:00,59.6,41.4,30.22,North,5,4.0,4.0,51,0.00,CLR,,0.00,WeatherDisplay:10.37,2013-03-29 01:47:00,
2013-03-28 21:52:00,59.6,41.9,30.22,NNE,24,3.5,3.5,52,0.00,CLR,,0.00,WeatherDisplay:10.37,2013-03-29 01:52:00,
2013-03-28 21:57:00,59.5,41.9,30.22,NNE,22,2.3,2.3,52,0.00,CLR,,0.00,WeatherDisplay:10.37,2013-03-29 01:57:00,
2013-03-28 22:02:00,59.3,42.2,30.22,NNE,22,3.5,3.5,53,0.00,CLR,,0.00,WeatherDisplay:10.37,2013-03-29 02:02:00,
2013-03-28 22:07:00,59.2,42.6,30.22,NNE,17,3.5,3.5,54,0.00,CLR,,0.00,WeatherDisplay:10.37,2013-03-29 02:07:00,
2013-03-28 22:12:00,59.1,42.5,30.22,NNE,15,3.5,3.5,54,0.00,CLR,,0.00,WeatherDisplay:10.37,2013-03-29 02:12:00,
2013-03-28 22:17:00,59.0,42.8,30.22,NNE,13,3.5,3.5,55,0.00,CLR,,0.00,WeatherDisplay:10.37,2013-03-29 02:17:00,
2013-03-28 22:22:00,59.0,43.8,30.22,NNE,13,2.3,2.3,57,0.00,CLR,,0.00,WeatherDisplay:10.37,2013-03-29 02:22:00,
2013-03-28 22:27:00,58.8,43.6,30.22,NNE,13,2.3,2.3,57,0.00,CLR,,0.00,WeatherDisplay:10.37,2013-03-29 02:27:00,
2013-03-28 22:32:00,58.6,42.9,30.22,NNE,13,1.2,1.2,56,0.00,CLR,,0.00,WeatherDisplay:10.37,2013-03-29 02:32:00,
2013-03-28 22:37:00,58.5,43.8,30.22,NNE,13,0.0,0.0,58,0.00,CLR,,0.00,WeatherDisplay:10.37,2013-03-29 02:37:00,
2013-03-28 22:42:00,58.5,43.3,30.22,NNE,13,2.3,2.3,57,0.00,CLR,,0.00,WeatherDisplay:10.37,2013-03-29 02:42:00,
2013-03-28 22:47:00,58.4,43.2,30.22,NNE,13,2.3,2.3,57,0.00,CLR,,0.00,WeatherDisplay:10.37,2013-03-29 02:47:00,
2013-03-28 22:52:00,58.3,43.6,30.22,NNE,13,0.0,0.0,58,0.00,CLR,,0.00,WeatherDisplay:10.37,2013-03-29 02:52:00,
2013-03-28 22:57:00,58.1,43.4,30.22,NNE,13,0.0,0.0,58,0.00,CLR,,0.00,WeatherDisplay:10.37,2013-03-29 02:57:00,
2013-03-28 23:02:00,58.0,43.3,30.22,NNE,13,2.3,2.3,58,0.00,CLR,,0.00,WeatherDisplay:10.37,2013-03-29 03:02:00,
2013-03-28 23:07:00,58.0,43.3,30.23,NNE,13,1.2,1.2,58,0.00,CLR,,0.00,WeatherDisplay:10.37,2013-03-29 03:07:00,
2013-03-28 23:12:00,57.9,43.7,30.23,NNE,13,2.0,2.0,59,0.00,CLR,,0.00,WeatherDisplay:10.37,2013-03-29 03:12:00,
2013-03-28 23:17:00,57.9,43.7,30.23,NNE,13,2.3,2.3,59,0.00,CLR,,0.00,WeatherDisplay:10.37,2013-03-29 03:17:00,
2013-03-28 23:22:00,57.9,43.7,30.23,NNE,13,2.3,2.3,59,0.00,CLR,,0.00,WeatherDisplay:10.37,2013-03-29 03:22:00,
2013-03-28 23:27:00,57.8,43.6,30.23,NNE,13,0.0,0.0,59,0.00,CLR,,0.00,WeatherDisplay:10.37,2013-03-29 03:27:00,
2013-03-28 23:32:00,57.7,43.9,30.23,NNE,13,1.2,1.2,60,0.00,CLR,,0.00,WeatherDisplay:10.37,2013-03-29 03:32:00,
2013-03-28 23:37:00,57.6,43.8,30.23,NNE,13,0.0,0.0,60,0.00,CLR,,0.00,WeatherDisplay:10.37,2013-03-29 03:37:00,
2013-03-28 23:42:00,57.5,43.7,30.23,NNE,13,0.0,0.0,60,0.00,CLR,,0.00,WeatherDisplay:10.37,2013-03-29 03:42:00,
2013-03-28 23:47:00,57.5,43.7,30.23,NNE,13,0.0,0.0,60,0.00,CLR,,0.00,WeatherDisplay:10.37,2013-03-29 03:47:00,
2013-03-28 23:52:00,57.5,43.7,30.23,NNE,13,2.3,2.3,60,0.00,CLR,,0.00,WeatherDisplay:10.37,2013-03-29 03:52:00,
2013-03-28 23:57:00,57.4,44.1,30.22,NNE,13,2.3,2.3,61,0.00,CLR,,0.00,WeatherDisplay:10.37,2013-03-29 03:57:00,